Find Starlink 35928

NORAD ID: 66528 Int'l Des: 2025-265 Owner: SPXS Country: US Constellation: starlink operational
LEOCIRCULAR

リアルタイム位置

3D地球を読み込み中...

Starlink 35928について

説明を読み込み中...

次回通過

Passes for default location (London). Set your location on the main map for personalized predictions.

高度履歴

Loading altitude history...

軌道要素

1 66528U 25265N 26105.29516039 .00009362 00000-0 34917-3 0 9993
2 66528 43.0035 71.0387 0001568 260.0562 100.0113 15.27590457 22714
Epoch: Apr 15, 2026 • Age: 4 hours

現在のステータス

高度 492.1 km
速度 7.62 km/s
衛星直下点 -35.06°S, 73.95°W
打ち上げ日 Nov 19, 2025
運用期間 0.4 years
タイプ internet

技術仕様

分類 Payload
質量 575.00 kg
乾燥質量 530.00 kg
総質量 575.00 kg
長さ 0.30 m
直径 4.10 m
スパン 29.00 m
形状 Box + pan
製造者 SPXS
バスタイプ Starlink V2MO
フェーズステータス In Orbit
所有者/国 SPXS/US

Most Searched